Wallingford, CT

7:40 PM EDT on August 24, 2016 (GMT -0400)
Meriden Markham Municipal

Weather History for KMMK - June, 2014

Change the Weather History Date:

Monday, June 16, 2014

  Actual Average (KHVN) Record (KHVN)
Temperature  
Mean Temperature 66 °F -  
Max Temperature 81 °F 73 °F 95 °F (1988)
Min Temperature 53 °F 58 °F 52 °F (2002)
Cooling Degree Days 1    
Growing Degree Days 16 (Base 50)    
Moisture  
Dew Point 53 °F    
Average Humidity 68    
Maximum Humidity 96    
Minimum Humidity 30    
Precipitation  
Precipitation 0.00 in - - ()
Sea Level Pressure  
Sea Level Pressure 30.11 in    
Wind  
Wind Speed 2 mph (South)    
Max Wind Speed 12 mph    
Max Gust Speed -    
Visibility 9 miles    
Events      
Averages and records for this station are not official NWS values.
T = Trace of Precipitation, MM = Missing Value Source: NWS Daily Summary

Daily Weather History Graph

Daily Weather History Graph

Search for Another Location

Airport or City:

Trip Planner

Search our weather history database for the weather conditions in past years. The results will help you decide how hot, cold, wet, or windy it might be!

Date:

Astronomy

Jun. 16, 2014 Rise Set
Actual Time 5:16 AM EDT 8:27 PM EDT
Civil Twilight 4:42 AM EDT 9:01 PM EDT
Nautical Twilight 3:59 AM EDT 9:45 PM EDT
Astronomical Twilight 3:06 AM EDT 10:37 PM EDT
Moon 11:14 PM EDT (6/16) 9:20 AM EDT (6/16)
Length of Visible Light 16h 18m
Length of Day
15h 10m
Waning Gibbous, 83% of the Moon is Illuminated
Jun 16
Waning Gibbous
Jun 19
Last Quarter
Jun 27
New
Jul 5
First Quarter
Jul 12
Full

Hourly Weather History & Observations

Time (EDT) Temp. Dew Point Humidity Pressure Visibility Wind Dir Wind Speed Gust Speed Precip Events Conditions
12:53 AM 57.0 °F 55.0 °F 93% 30.08 in 10.0 mi SE 3.5 mph - N/A   Clear
1:53 AM 57.0 °F 55.0 °F 93% 30.09 in 10.0 mi Calm Calm - N/A   Clear
2:53 AM 57.0 °F 54.0 °F 89% 30.11 in 10.0 mi Calm Calm - N/A   Clear
3:53 AM 55.9 °F 54.0 °F 93% 30.12 in 10.0 mi Calm Calm - N/A   Clear
4:46 AM 54.0 °F 52.0 °F 93% 30.12 in 2.0 mi Calm Calm - N/A   Clear
4:53 AM 54.0 °F 52.0 °F 93% 30.12 in 1.8 mi Calm Calm - N/A   Partly Cloudy
5:04 AM 54.0 °F 52.0 °F 93% 30.13 in 3.0 mi Calm Calm - N/A   Clear
5:32 AM 53.1 °F 52.0 °F 96% 30.14 in 2.0 mi Calm Calm - N/A   Clear
5:41 AM 53.1 °F 51.1 °F 93% 30.14 in 9.0 mi Calm Calm - N/A   Clear
5:53 AM 54.0 °F 52.0 °F 93% 30.14 in 10.0 mi Calm Calm - N/A   Clear
6:53 AM 59.0 °F 55.9 °F 90% 30.15 in 10.0 mi Calm Calm - N/A   Clear
7:53 AM 64.0 °F 55.9 °F 75% 30.16 in 10.0 mi Calm Calm - N/A   Clear
8:53 AM 68.0 °F 55.0 °F 63% 30.16 in 10.0 mi Calm Calm - N/A   Clear
9:53 AM 72.0 °F 52.0 °F 49% 30.16 in 10.0 mi Variable 5.8 mph - N/A   Clear
10:53 AM 73.9 °F 48.9 °F 41% 30.16 in 10.0 mi Calm Calm - N/A   Clear
11:53 AM 75.0 °F 48.0 °F 38% 30.14 in 10.0 mi Calm Calm - N/A   Clear
12:53 PM 78.1 °F 48.9 °F 36% 30.13 in 10.0 mi ESE 4.6 mph - N/A   Clear
1:53 PM 79.0 °F 45.0 °F 30% 30.11 in 10.0 mi Variable 3.5 mph - N/A   Clear
2:53 PM 79.0 °F 52.0 °F 39% 30.09 in 10.0 mi South 9.2 mph - N/A   Clear
3:53 PM 79.0 °F 52.0 °F 39% 30.09 in 10.0 mi SSW 8.1 mph - N/A   Clear
4:53 PM 78.1 °F 53.1 °F 42% 30.07 in 10.0 mi South 10.4 mph - N/A   Clear
5:53 PM 77.0 °F 52.0 °F 42% 30.06 in 10.0 mi South 11.5 mph - N/A   Clear
6:53 PM 72.0 °F 53.1 °F 51% 30.05 in 10.0 mi South 6.9 mph - N/A   Clear
7:53 PM 70.0 °F 53.1 °F 55% 30.06 in 10.0 mi South 5.8 mph - N/A   Clear
8:53 PM 66.9 °F 54.0 °F 63% 30.08 in 10.0 mi South 4.6 mph - N/A   Clear
9:53 PM 64.9 °F 55.0 °F 70% 30.09 in 10.0 mi Calm Calm - N/A   Clear
10:53 PM 64.9 °F 55.0 °F 70% 30.09 in 10.0 mi SSE 3.5 mph - N/A   Scattered Clouds
11:53 PM 63.0 °F 55.0 °F 75% 30.08 in 10.0 mi South 3.5 mph - N/A   Clear